Effingham, IL

1:36 PM CDT on September 26, 2017 (GMT -0500)
Effingham

Weather History for K1H2 - October, 2012

Change the Weather History Date:

Monday, October 29, 2012

  Actual Average (KMTO) Record (KMTO)
Temperature  
Mean Temperature 44 °F -  
Max Temperature 53 °F 60 °F 79 °F (1971)
Min Temperature 34 °F 40 °F 20 °F (1952)
Degree Days  
Heating Degree Days 22    
Moisture  
Dew Point 31 °F    
Average Humidity 63    
Maximum Humidity 86    
Minimum Humidity 38    
Precipitation  
Precipitation 0.00 in - - ()
Sea Level Pressure  
Sea Level Pressure 30.19 in    
Wind  
Wind Speed 9 mph (NNW)    
Max Wind Speed 21 mph    
Max Gust Speed 26 mph    
Visibility 10 miles    
Events Snow    
Averages and records for this station are not official NWS values.
T = Trace of Precipitation, MM = Missing Value Source: NWS Daily Summary

Daily Weather History Graph

Daily Weather History Graph

Search for Another Location

Airport or City:

Trip Planner

Search our weather history database for the weather conditions in past years. The results will help you decide how hot, cold, wet, or windy it might be!

Date:

Astronomy

Oct. 29, 2012 Rise Set
Actual Time 7:18 AM CDT 5:56 PM CDT
Civil Twilight 6:51 AM CDT 6:23 PM CDT
Nautical Twilight 6:19 AM CDT 6:55 PM CDT
Astronomical Twilight 5:48 AM CDT 7:26 PM CDT
Moon 5:48 PM CDT (10/29) 7:08 AM CDT (10/29)
Length of Visible Light 11h 32m
Length of Day
10h 37m
Full, 100% of the Moon is Illuminated
Oct 29
Full
Oct 29
Full
Nov 6
Last Quarter
Nov 13
New
Nov 20
First Quarter

Hourly Weather History & Observations

Time (CDT) Temp. Windchill Dew Point Humidity Pressure Visibility Wind Dir Wind Speed Gust Speed Precip Events Conditions
12:15 AM 39.2 °F 32.5 °F 31.1 °F 73% 30.22 in 10.0 mi North 10.4 mph - N/A   Unknown
12:35 AM 38.8 °F 33.8 °F 31.1 °F 74% 30.23 in 10.0 mi NNW 6.9 mph - N/A   Unknown
12:55 AM 39.0 °F 33.4 °F 31.1 °F 73% 30.22 in 10.0 mi North 8.1 mph 17.3 mph N/A   Unknown
1:15 AM 38.5 °F 34.1 °F 30.9 °F 74% 30.22 in 10.0 mi North 5.8 mph - N/A   Unknown
1:35 AM 39.2 °F 34.2 °F 32.0 °F 75% 30.22 in 10.0 mi NNW 6.9 mph - N/A   Unknown
1:55 AM 37.9 °F 32.7 °F 31.1 °F 76% 30.22 in 10.0 mi NNW 6.9 mph - N/A Snow Light Snow
2:15 AM 37.6 °F 32.3 °F 31.1 °F 77% 30.22 in 10.0 mi NNW 6.9 mph - N/A Snow Light Snow
2:35 AM 37.0 °F 31.6 °F 31.1 °F 79% 30.22 in 10.0 mi NNW 6.9 mph - N/A Snow Light Snow
2:55 AM 36.9 °F 31.4 °F 31.3 °F 80% 30.22 in 10.0 mi NW 6.9 mph - N/A Snow Light Snow
3:15 AM 36.9 °F 33.1 °F 31.3 °F 80% 30.21 in 10.0 mi NNW 4.6 mph - N/A Snow Light Snow
3:35 AM 36.9 °F 31.4 °F 31.5 °F 81% 30.21 in 10.0 mi NNW 6.9 mph - N/A Snow Light Snow
3:55 AM 37.2 °F 31.2 °F 31.6 °F 80% 30.21 in 10.0 mi NNW 8.1 mph - N/A Snow Light Snow
4:15 AM 36.7 °F 31.2 °F 31.5 °F 81% 30.21 in 10.0 mi NNW 6.9 mph - N/A Snow Light Snow
4:35 AM 37.0 °F 31.6 °F 31.6 °F 81% 30.21 in 10.0 mi North 6.9 mph - N/A Snow Light Snow
4:55 AM 36.7 °F 32.0 °F 31.5 °F 81% 30.22 in 10.0 mi NNW 5.8 mph - N/A Snow Light Snow
5:15 AM 36.7 °F 30.5 °F 31.6 °F 82% 30.22 in 10.0 mi North 8.1 mph - N/A Snow Light Snow
5:35 AM 36.7 °F 30.5 °F 31.6 °F 82% 30.22 in 10.0 mi North 8.1 mph - N/A Snow Light Snow
5:55 AM 37.4 °F 31.4 °F 32.0 °F 81% 30.23 in 10.0 mi North 8.1 mph - N/A Snow Light Snow
6:15 AM 35.6 °F 30.7 °F 31.5 °F 85% 30.23 in 10.0 mi North 5.8 mph - N/A Snow Light Snow
6:35 AM 35.6 °F 29.9 °F 31.1 °F 84% 30.24 in 10.0 mi North 6.9 mph - N/A Snow Light Snow
6:55 AM 35.2 °F 29.5 °F 31.1 °F 85% 30.24 in 10.0 mi North 6.9 mph - N/A Snow Light Snow
7:15 AM 34.9 °F 30.8 °F 30.9 °F 85% 30.24 in 10.0 mi NNW 4.6 mph - N/A Snow Light Snow
7:35 AM 34.7 °F 29.6 °F 30.9 °F 86% 30.24 in 10.0 mi NW 5.8 mph - N/A Snow Light Snow
7:55 AM 35.1 °F 30.1 °F 31.3 °F 86% 30.25 in 7.0 mi NW 5.8 mph - N/A Snow Light Snow
8:15 AM 36.5 °F 29.7 °F 31.6 °F 83% 30.25 in 10.0 mi NNW 9.2 mph - N/A Snow Light Snow
8:35 AM 37.9 °F 32.1 °F 32.0 °F 79% 30.25 in 10.0 mi NNW 8.1 mph - N/A Snow Light Snow
8:55 AM 39.2 °F 33.6 °F 32.0 °F 75% 30.25 in 10.0 mi NNW 8.1 mph - N/A   Unknown
9:15 AM 40.6 °F 33.8 °F 32.7 °F 73% 30.25 in 10.0 mi NNW 11.5 mph - N/A   Unknown
9:35 AM 42.1 °F 36.1 °F 33.1 °F 70% 30.26 in - NNW 10.4 mph - N/A   Unknown
9:55 AM 43.7 °F 37.3 °F 34.2 °F 69% 30.26 in 10.0 mi NNW 12.7 mph 16.1 mph N/A   Unknown
10:15 AM 45.0 °F 39.3 °F 34.9 °F 68% 30.26 in 10.0 mi NNW 11.5 mph 21.9 mph N/A   Unknown
10:35 AM 46.0 °F 41.4 °F 35.6 °F 67% 30.25 in 10.0 mi NNW 9.2 mph 21.9 mph N/A   Unknown
10:55 AM 48.2 °F - 35.6 °F 62% 30.25 in 10.0 mi North 12.7 mph 18.4 mph N/A   Clear
11:15 AM 48.9 °F - 35.8 °F 61% 30.25 in 10.0 mi NNW 13.8 mph 19.6 mph N/A   Scattered Clouds
11:35 AM 50.0 °F - 34.7 °F 56% 30.24 in 10.0 mi North 12.7 mph 23.0 mph N/A   Clear
11:55 AM 50.5 °F - 33.4 °F 52% 30.23 in 10.0 mi North 13.8 mph - N/A   Clear
12:15 PM 51.1 °F - 33.6 °F 51% 30.22 in 10.0 mi NNW 13.8 mph 19.6 mph N/A   Clear
12:35 PM 51.8 °F - 33.8 °F 50% 30.21 in 10.0 mi North 17.3 mph 23.0 mph N/A   Clear
12:55 PM 52.5 °F - 34.3 °F 50% 30.21 in 10.0 mi NNW 13.8 mph 25.3 mph N/A   Scattered Clouds
1:15 PM 52.0 °F - 31.5 °F 46% 30.19 in 10.0 mi North 15.0 mph 23.0 mph N/A   Scattered Clouds
1:35 PM 52.7 °F - 31.6 °F 45% 30.18 in 10.0 mi North 12.7 mph 24.2 mph N/A   Clear
1:55 PM 52.7 °F - 30.6 °F 43% 30.18 in 10.0 mi North 13.8 mph 26.5 mph N/A   Clear
2:15 PM 53.1 °F - 31.1 °F 43% 30.16 in 10.0 mi NNW 19.6 mph - N/A   Clear
2:35 PM 52.9 °F - 29.8 °F 41% 30.16 in 10.0 mi NNW 11.5 mph 25.3 mph N/A   Clear
2:55 PM 53.1 °F - 28.8 °F 39% 30.15 in 10.0 mi NNW 16.1 mph 25.3 mph N/A   Clear
3:15 PM 53.4 °F - 29.5 °F 40% 30.15 in 10.0 mi NNW 16.1 mph 20.7 mph N/A   Clear
3:35 PM 53.1 °F - 28.6 °F 39% 30.15 in 10.0 mi NNW 20.7 mph 25.3 mph N/A   Clear
3:55 PM 52.7 °F - 27.7 °F 38% 30.14 in 10.0 mi NNW 18.4 mph 23.0 mph N/A   Clear
4:15 PM 52.7 °F - 27.7 °F 38% 30.14 in 10.0 mi North 15.0 mph 23.0 mph N/A   Clear
4:35 PM 52.0 °F - 28.0 °F 40% 30.13 in 10.0 mi North 12.7 mph 24.2 mph N/A   Clear
4:55 PM 51.8 °F - 27.7 °F 39% 30.13 in 10.0 mi NNW 15.0 mph 23.0 mph N/A   Clear
5:15 PM 50.9 °F - 28.0 °F 41% 30.13 in 10.0 mi NNW 15.0 mph 23.0 mph N/A   Clear
5:35 PM 50.0 °F - 27.1 °F 41% 30.12 in 10.0 mi NNW 15.0 mph 20.7 mph N/A   Clear
5:55 PM 48.7 °F - 28.4 °F 45% 30.12 in 10.0 mi NNW 8.1 mph - N/A   Clear
6:15 PM 48.2 °F - 28.0 °F 46% 30.11 in 10.0 mi NNW 10.4 mph 16.1 mph N/A   Clear
6:35 PM 47.3 °F - 28.2 °F 48% 30.10 in 10.0 mi NNW 9.2 mph - N/A   Clear
6:55 PM 47.1 °F - 28.2 °F 48% 30.10 in 10.0 mi NNW 9.2 mph 16.1 mph N/A   Clear
7:15 PM 46.4 °F 41.9 °F 28.6 °F 50% 30.10 in 10.0 mi NNW 9.2 mph - N/A   Clear
7:35 PM 46.0 °F 41.9 °F 28.4 °F 50% 30.10 in 10.0 mi NNW 8.1 mph - N/A   Clear
10:35 PM 43.9 °F 37.9 °F 25.9 °F 49% 30.07 in 10.0 mi NNW 11.5 mph 17.3 mph N/A   Clear
10:55 PM 43.7 °F 37.7 °F 25.7 °F 49% 30.06 in 10.0 mi NNW 11.5 mph 17.3 mph N/A   Clear
11:15 PM 43.3 °F 37.2 °F 25.7 °F 50% 30.05 in 10.0 mi NNW 11.5 mph 16.1 mph N/A   Clear
11:35 PM 42.8 °F 36.6 °F 26.2 °F 52% 30.05 in 10.0 mi NNW 11.5 mph - N/A   Clear
11:55 PM 42.3 °F 35.9 °F 26.6 °F 54% 30.04 in 10.0 mi NNW 11.5 mph - N/A   Unknown